CW6318 Weather Reports


Display with metric or nautical units.
time (UTC)temp
F
wind
direction
speed
MPH
gust
MPH
rain 1hr
in
rain 24hr
in
rain mn
in
humidity
%
barometer
mb
20260901030002 75 254 0.0 0.0 0.00 0.00 0.00 52 992.4
20260901025501 76 254 0.0 0.0 0.00 0.00 0.00 52 992.4
20260901025004 76 254 0.0 0.0 0.00 0.00 0.00 52 992.4
20260901024459 76 254 0.0 0.0 0.00 0.00 0.00 52 992.3
20260901024000 77 254 0.0 0.0 0.00 0.00 0.00 52 992.3
20260901023501 77 254 0.0 0.0 0.00 0.00 0.00 51 992.2
20260901023001 77 254 0.0 0.0 0.00 0.00 0.00 50 992.2
20260901022459 77 254 0.0 0.0 0.00 0.00 0.00 49 992.1
20260901022001 77 254 0.0 0.0 0.00 0.00 0.00 48 992.2
20260901021001 78 254 0.0 1.0 0.00 0.00 0.00 46 992.1
20260901020501 78 254 0.0 1.0 0.00 0.00 0.00 47 992.1
20260901020002 78 254 0.0 2.0 0.00 0.00 0.00 46 992.2
20260901015501 78 254 0.0 0.0 0.00 0.00 0.00 46 992.1
20260901014001 79 266 0.0 2.0 0.00 0.00 0.00 45 992.1
20260901013500 79 266 0.0 1.0 0.00 0.00 0.00 44 992.1
20260901013000 79 266 0.0 0.0 0.00 0.00 0.00 43 992.1
20260901012500 79 266 0.0 0.0 0.00 0.00 0.00 42 992.1
20260901012000 79 266 0.0 1.0 0.00 0.00 0.00 42 992.0
20260901011502 79 266 0.0 3.0 0.00 0.00 0.00 41 992.0
20260901011002 79 266 0.0 3.0 0.00 0.00 0.00 39 992.0
20260901010501 79 272 0.0 0.0 0.00 0.00 0.00 40 992.0
20260901010000 79 273 0.0 0.0 0.00 0.00 0.00 40 992.0
20260901005459 79 273 0.0 1.0 0.00 0.00 0.00 39 991.9
20260901005000 0 0.0 0.0 0.00 0.00 0.00 991.9
20260901004002 0 0.0 0.0 0.00 0.00 0.00 991.9
20260901003459 81 294 0.0 5.0 0.00 0.00 0.00 35 992.0
20260901003001 81 294 0.0 5.0 0.00 0.00 0.00 35 992.0
20260901002501 81 294 0.0 5.0 0.00 0.00 0.00 35 991.9
20260901002001 81 236 0.0 6.0 0.00 0.00 0.00 35 991.9
20260901001501 81 282 0.0 6.0 0.00 0.00 0.00 35 991.9
20260901001001 82 263 0.0 7.0 0.00 0.00 0.00 34 991.9
20260901000500 82 233 0.0 7.0 0.00 0.00 0.00 34 992.0
20260901000003 82 231 4.0 6.0 0.00 0.00 0.00 35 992.0
20260831235000 83 239 3.0 7.0 0.00 0.00 0.00 34 991.9
20260831234501 83 242 1.0 7.0 0.00 0.00 0.00 34 991.9
20260831234001 83 273 0.0 7.0 0.00 0.00 0.00 34 991.8
20260831233500 83 263 3.0 7.0 0.00 0.00 0.00 33 991.8
20260831232001 84 242 1.0 5.0 0.00 0.00 0.00 33 991.8
20260831231501 84 255 1.0 6.0 0.00 0.00 0.00 33 991.7
20260831231000 84 278 0.0 6.0 0.00 0.00 0.00 33 991.7
20260831230500 85 251 0.0 6.0 0.00 0.00 0.00 33 991.7
20260831225959 84 227 3.0 5.0 0.00 0.00 0.00 34 991.8
20260831225500 83 238 4.0 5.0 0.00 0.00 0.00 35 991.8
20260831225001 83 263 1.0 6.0 0.00 0.00 0.00 35 991.9
20260831224500 84 244 1.0 6.0 0.00 0.00 0.00 35 991.9
20260831223959 84 250 2.0 6.0 0.00 0.00 0.00 35 991.9
20260831223459 84 297 0.0 9.0 0.00 0.00 0.00 35 991.8
20260831222459 84 217 5.0 7.0 0.00 0.00 0.00 35 992.0
20260831221959 84 255 1.0 8.0 0.00 0.00 0.00 36 992.0
20260831221459 84 236 2.0 8.0 0.00 0.00 0.00 34 992.0
20260831220459 84 260 0.0 6.0 0.00 0.00 0.00 35 992.1
20260831215959 85 243 3.0 6.0 0.00 0.00 0.00 34 992.2
20260831215500 85 228 0.0 5.0 0.00 0.00 0.00 34 992.2
20260831214501 85 254 1.0 8.0 0.00 0.00 0.00 34 992.3
20260831213001 86 248 3.0 6.0 0.00 0.00 0.00 33 992.3
20260831212501 85 299 2.0 6.0 0.00 0.00 0.00 33 992.4
20260831212000 85 299 4.0 6.0 0.00 0.00 0.00 34 992.3
20260831210501 85 235 0.0 5.0 0.00 0.00 0.00 34 992.2
20260831210000 85 216 4.0 5.0 0.00 0.00 0.00 33 992.2
20260831205502 85 283 2.0 5.0 0.00 0.00 0.00 34 992.2
20260831204959 85 227 1.0 3.0 0.00 0.00 0.00 33 992.2
20260831204500 86 208 0.0 3.0 0.00 0.00 0.00 31 992.3
20260831204000 86 223 1.0 3.0 0.00 0.00 0.00 28 992.4
20260831203459 87 150 0.0 6.0 0.00 0.00 0.00 28 992.5
20260831202959 86 71 1.0 1.0 0.00 0.00 0.00 28 992.5
20260831202500 86 71 0.0 2.0 0.00 0.00 0.00 27 992.5
20260831202000 86 71 1.0 3.0 0.00 0.00 0.00 28 992.6
20260831201459 86 87 0.0 6.0 0.00 0.00 0.00 27 992.7
20260831200959 85 254 0.0 6.0 0.00 0.00 0.00 29 992.7
20260831200002 85 155 0.0 6.0 0.00 0.00 0.00 28 992.8
20260831195501 85 154 0.0 7.0 0.00 0.00 0.00 27 993.1
20260831195001 85 133 1.0 7.0 0.00 0.00 0.00 29 993.1
20260831194502 85 84 0.0 4.0 0.00 0.00 0.00 28 993.1
20260831194000 84 144 0.0 2.0 0.00 0.00 0.00 29 993.2
20260831193459 85 142 0.0 4.0 0.00 0.00 0.00 30 993.2
20260831192959 85 92 0.0 5.0 0.00 0.00 0.00 29 993.3
20260831192500 84 144 0.0 5.0 0.00 0.00 0.00 29 993.3
20260831191459 84 121 0.0 6.0 0.00 0.00 0.00 28 993.5
20260831191000 84 146 1.0 6.0 0.00 0.00 0.00 30 993.6
20260831190459 83 192 2.0 7.0 0.00 0.00 0.00 32 993.6
20260831185459 82 94 0.0 5.0 0.00 0.00 0.00 31 993.9
20260831185001 82 154 0.0 4.0 0.00 0.00 0.00 31 994.0
20260831184459 82 60 0.0 4.0 0.00 0.00 0.00 31 994.0
20260831183959 81 107 0.0 4.0 0.00 0.00 0.00 32 994.1
20260831183500 81 84 1.0 6.0 0.00 0.00 0.00 33 994.1
20260831183000 80 75 0.0 6.0 0.00 0.00 0.00 32 994.2
20260831182501 81 138 0.0 6.0 0.00 0.00 0.00 34 994.2
20260831182001 80 122 0.0 6.0 0.00 0.00 0.00 34 994.3
20260831181501 79 164 0.0 2.0 0.00 0.00 0.00 34 994.3
20260831181004 79 249 0.0 4.0 0.00 0.00 0.00 35 994.4
20260831180501 78 257 2.0 5.0 0.00 0.00 0.00 36 994.5
20260831180002 78 151 0.0 5.0 0.00 0.00 0.00 37 994.6
20260831175500 78 210 0.0 7.0 0.00 0.00 0.00 38 994.7
20260831175001 77 107 1.0 7.0 0.00 0.00 0.00 38 994.7
20260831174501 77 124 0.0 5.0 0.00 0.00 0.00 38 994.7
20260831173959 76 127 0.0 5.0 0.00 0.00 0.00 37 994.7
20260831173459 76 275 0.0 2.0 0.00 0.00 0.00 39 994.8
20260831172959 76 173 1.0 4.0 0.00 0.00 0.00 43 994.9
20260831172500 75 173 2.0 6.0 0.00 0.00 0.00 41 994.8
20260831171959 74 145 0.0 6.0 0.00 0.00 0.00 41 994.8
20260831171459 74 325 0.0 7.0 0.00 0.00 0.00 41 994.8
20260831170958 74 80 0.0 7.0 0.00 0.00 0.00 42 994.8
20260831170459 73 344 3.0 3.0 0.00 0.00 0.00 44 994.9
20260831165500 72 229 0.0 5.0 0.00 0.00 0.00 47 995.0
20260831165000 72 105 0.0 5.0 0.00 0.00 0.00 46 995.0
20260831164501 71 138 1.0 5.0 0.00 0.00 0.00 47 995.1
20260831164001 71 125 0.0 7.0 0.00 0.00 0.00 47 995.2
20260831163500 70 180 0.0 7.0 0.00 0.00 0.00 50 995.2
20260831163000 70 28 0.0 3.0 0.00 0.00 0.00 51 995.3
20260831162501 69 314 0.0 4.0 0.00 0.00 0.00 50 995.5
20260831162000 69 107 1.0 6.0 0.00 0.00 0.00 52 995.4
20260831161502 68 157 3.0 6.0 0.00 0.00 0.00 54 995.4
20260831161001 68 163 0.0 5.0 0.00 0.00 0.00 55 995.5
20260831160500 67 80 0.0 11.0 0.00 0.00 0.00 55 995.6
20260831160000 66 196 3.0 11.0 0.00 0.00 0.00 56 995.6
20260831155501 65 104 0.0 5.0 0.00 0.00 0.00 59 995.7
20260831155001 64 164 1.0 6.0 0.00 0.00 0.00 62 995.6
20260831154500 61 157 1.0 6.0 0.00 0.00 0.00 68 995.6
20260831154001 59 134 2.0 6.0 0.00 0.00 0.00 71 995.8
20260831153459 58 142 0.0 6.0 0.00 0.00 0.00 72 995.7
20260831152458 56 159 3.0 4.0 0.00 0.00 0.00 75 995.7
20260831151959 56 79 0.0 5.0 0.00 0.00 0.00 76 995.8
20260831150959 55 165 0.0 4.0 0.00 0.00 0.00 76 995.8
20260831150500 55 165 0.0 2.0 0.00 0.00 0.00 77 995.8
20260831145959 55 165 0.0 6.0 0.00 0.00 0.00 77 995.9
20260831145500 55 165 0.0 6.0 0.00 0.00 0.00 77 995.9
20260831144459 54 176 0.0 7.0 0.00 0.00 0.00 77 995.8
20260831143959 53 168 7.0 7.0 0.00 0.00 0.00 74 996.0
20260831143459 51 170 0.0 5.0 0.00 0.00 0.00 71 996.0
20260831142959 49 171 0.0 5.0 0.00 0.00 0.00 66 995.8
20260831142459 48 152 0.0 9.0 0.00 0.00 0.00 62 995.9
20260831141959 47 180 2.0 9.0 0.00 0.00 0.00 61 996.0
20260831141459 46 132 1.0 4.0 0.00 0.00 0.00 62 995.9
20260831140959 46 171 2.0 5.0 0.00 0.00 0.00 62 995.8
20260831140000 45 225 0.0 5.0 0.00 0.00 0.00 65 996.0
20260831135502 44 141 0.0 7.0 0.00 0.00 0.00 66 996.0
20260831135000 44 141 0.0 7.0 0.00 0.00 0.00 67 996.1
20260831134501 44 238 0.0 0.0 0.00 0.00 0.00 68 996.0
20260831133959 44 238 0.0 1.0 0.00 0.00 0.00 68 996.0
20260831132959 44 238 0.0 1.0 0.00 0.00 0.00 68 996.0
20260831132459 44 237 0.0 0.0 0.00 0.00 0.00 69 996.0
20260831132000 44 237 0.0 0.0 0.00 0.00 0.00 69 996.1
20260831131458 44 237 0.0 0.0 0.00 0.00 0.00 69 996.1
20260831130501 44 237 0.0 0.0 0.00 0.00 0.00 69 996.2
20260831125459 44 237 0.0 4.0 0.00 0.00 0.00 69 996.3
20260831125002 45 239 0.0 0.0 0.00 0.00 0.00 69 996.4
20260831124501 45 239 0.0 0.0 0.00 0.00 0.00 69 996.3
20260831124010 45 239 0.0 0.0 0.00 0.00 0.00 70 996.4
20260831123500 45 240 0.0 0.0 0.00 0.00 0.00 70 996.5
20260831123008 45 240 0.0 0.0 0.00 0.00 0.00 70 996.6
20260831122505 45 239 0.0 0.0 0.00 0.00 0.00 70 996.6
20260831122006 45 239 0.0 0.0 0.00 0.00 0.00 70 996.5
20260831121004 45 240 0.0 1.0 0.00 0.00 0.00 71 996.5
20260831120002 45 239 0.0 0.0 0.00 0.00 0.00 72 996.6
20260831115000 45 239 0.0 0.0 0.00 0.00 0.00 72 996.7
20260831114501 45 239 0.0 0.0 0.00 0.00 0.00 72 996.7
20260831114000 45 240 0.0 0.0 0.00 0.00 0.00 72 996.7
20260831113501 46 239 0.0 0.0 0.00 0.00 0.00 72 996.7
20260831112500 46 239 0.0 0.0 0.00 0.00 0.00 73 996.8
20260831111459 46 239 0.0 0.0 0.00 0.00 0.00 72 996.9
20260831110501 46 239 0.0 0.0 0.00 0.00 0.00 73 997.0
20260831110002 46 240 0.0 0.0 0.00 0.00 0.00 73 997.0
20260831105500 46 240 0.0 0.0 0.00 0.00 0.00 73 996.9
20260831104959 46 239 0.0 0.0 0.00 0.00 0.00 73 996.9
20260831103959 46 240 0.0 0.0 0.00 0.00 0.00 73 997.0
20260831103001 47 240 0.0 0.0 0.00 0.00 0.00 74 997.1
20260831102501 47 240 0.0 0.0 0.00 0.00 0.00 74 997.1
20260831101959 47 240 0.0 0.0 0.00 0.00 0.00 74 997.1
20260831101503 47 240 0.0 0.0 0.00 0.00 0.00 74 997.1
20260831101000 47 240 0.0 0.0 0.00 0.00 0.00 74 997.1
20260831100000 47 240 0.0 0.0 0.00 0.00 0.00 75 997.2
20260831095459 47 240 0.0 0.0 0.00 0.00 0.00 75 997.2
20260831094459 48 240 0.0 0.0 0.00 0.00 0.00 76 997.4
20260831093959 48 240 0.0 0.0 0.00 0.00 0.00 76 997.5
20260831093500 48 240 0.0 0.0 0.00 0.00 0.00 76 997.7
20260831092958 48 240 0.0 0.0 0.00 0.00 0.00 76 997.7
20260831092459 48 239 0.0 0.0 0.00 0.00 0.00 77 997.7
20260831092000 48 239 0.0 0.0 0.00 0.00 0.00 77 997.8
20260831091500 48 240 0.0 0.0 0.00 0.00 0.00 77 997.8
20260831090959 48 239 0.0 0.0 0.00 0.00 0.00 77 997.9
20260831090459 49 240 0.0 0.0 0.00 0.00 0.00 77 998.0
20260831085459 49 239 0.0 0.0 0.00 0.00 0.00 77 998.1
20260831085001 49 239 0.0 0.0 0.00 0.00 0.00 77 998.1
20260831084458 49 239 0.0 0.0 0.00 0.00 0.00 77 998.3
20260831083501 49 240 0.0 0.0 0.00 0.00 0.00 77 998.5
20260831083001 49 239 0.0 0.0 0.00 0.00 0.00 77 998.4
20260831082502 50 239 0.0 0.0 0.00 0.00 0.00 77 998.5
20260831081500 50 239 0.0 0.0 0.00 0.00 0.00 77 998.6
20260831080501 50 240 0.0 0.0 0.00 0.00 0.00 78 998.8
20260831080001 50 240 0.0 0.0 0.00 0.00 0.00 77 998.8
20260831075459 50 239 0.0 0.0 0.00 0.00 0.00 77 998.9
20260831074959 51 240 0.0 0.0 0.00 0.00 0.00 77 998.9
20260831074501 51 240 0.0 0.0 0.00 0.00 0.00 77 998.9
20260831074001 51 240 0.0 0.0 0.00 0.00 0.00 77 999.0
20260831073458 51 240 0.0 0.0 0.00 0.00 0.00 77 999.0
20260831072459 52 240 0.0 0.0 0.00 0.00 0.00 77 999.0
20260831072000 52 239 0.0 0.0 0.00 0.00 0.00 77 999.0
20260831071501 52 240 0.0 0.0 0.00 0.00 0.00 77 999.1
20260831071001 52 240 0.0 0.0 0.00 0.00 0.00 77 999.2
20260831070500 52 239 0.0 0.0 0.00 0.00 0.00 77 999.2
20260831070007 53 239 0.0 0.0 0.00 0.00 0.00 77 999.3
20260831065001 53 239 0.0 0.0 0.00 0.00 0.00 77 999.3
20260831064459 53 240 0.0 0.0 0.00 0.00 0.00 77 999.4
20260831064003 53 240 0.0 0.0 0.00 0.00 0.00 77 999.4
20260831063501 53 240 0.0 0.0 0.00 0.00 0.00 77 999.4
20260831063001 54 240 0.0 0.0 0.00 0.00 0.00 77 999.5
20260831062500 54 239 0.0 0.0 0.00 0.00 0.00 77 999.5
20260831062002 54 240 0.0 0.0 0.00 0.00 0.00 77 999.5
20260831061501 54 239 0.0 0.0 0.00 0.00 0.00 77 999.6
20260831061001 54 239 0.0 0.0 0.00 0.00 0.00 77 999.6
20260831060501 54 239 0.0 0.0 0.00 0.00 0.00 77 999.6
20260831060001 54 239 0.0 0.0 0.00 0.00 0.00 77 999.7
20260831054959 54 239 0.0 1.0 0.00 0.00 0.00 77 999.8
20260831054501 54 240 0.0 0.0 0.00 0.00 0.00 77 999.8
20260831053500 54 239 0.0 0.0 0.00 0.00 0.00 76 999.9
20260831053000 54 239 0.0 0.0 0.00 0.00 0.00 76 1000.1
20260831052001 55 240 0.0 0.0 0.00 0.00 0.00 75 1000.2
20260831051000 55 239 0.0 0.0 0.00 0.00 0.00 74 1000.3
20260831050459 55 240 0.0 0.0 0.00 0.00 0.00 73 1000.4
20260831050000 56 239 0.0 0.0 0.00 0.00 0.00 73 1000.4
20260831045500 56 239 0.0 0.0 0.00 0.00 0.00 73 1000.4
20260831045000 56 240 0.0 0.0 0.00 0.00 0.00 72 1000.5
20260831043501 57 239 0.0 0.0 0.00 0.00 0.00 71 1000.6
20260831043000 57 240 0.0 0.0 0.00 0.00 0.00 71 1000.6
20260831042501 58 239 0.0 0.0 0.00 0.00 0.00 70 1000.7
20260831041000 59 240 0.0 0.0 0.00 0.00 0.00 68 1000.6
20260831040500 59 240 0.0 0.0 0.00 0.00 0.00 68 1000.7
20260831040003 59 240 0.0 0.0 0.00 0.00 0.00 67 1000.7
20260831035500 60 240 0.0 0.0 0.00 0.00 0.00 67 1000.7
20260831035000 60 240 0.0 0.0 0.00 0.00 0.00 66 1000.6
20260831034500 60 240 0.0 0.0 0.00 0.00 0.00 66 1000.7
20260831034000 61 240 0.0 0.0 0.00 0.00 0.00 65 1000.6
20260831033500 61 240 0.0 0.0 0.00 0.00 0.00 64 1000.6
20260831033000 62 239 0.0 0.0 0.00 0.00 0.00 64 1000.6
20260831032000 62 240 0.0 0.0 0.00 0.00 0.00 62 1000.5
20260831031459 63 239 0.0 0.0 0.00 0.00 0.00 62 1000.5
20260831031000 63 240 0.0 0.0 0.00 0.00 0.00 61 1000.5
20260831030502 64 239 0.0 0.0 0.00 0.00 0.00 60 1000.4